Waarnemingen

Advertentie
Mijn weer
Inverbervie, Groot Brittannië (3088): temperatuur & dauwpunt: 11.12.2018 00:00:00 - 17.12.2018 00:00:00 (GMT)Inverbervie, Groot Brittannië (3088): temperatuur -20cm & temperatuur -100cm: 11.12.2018 00:00:00 - 17.12.2018 00:00:00 (GMT)Inverbervie, Groot Brittannië (3088): windsnelheid & windstoten: 11.12.2018 00:00:00 - 17.12.2018 00:00:00 (GMT)Inverbervie, Groot Brittannië (3088): windrichting: 11.12.2018 00:00:00 - 17.12.2018 00:00:00 (GMT)Inverbervie, Groot Brittannië (3088): luchtdruk: 11.12.2018 00:00:00 - 17.12.2018 00:00:00 (GMT)Inverbervie, Groot Brittannië (3088): zicht: 11.12.2018 00:00:00 - 17.12.2018 00:00:00 (GMT)Inverbervie, Groot Brittannië (3088): neerslag: 11.12.2018 00:00:00 - 17.12.2018 00:00:00 (GMT)
Datum & Tijd tt [°C] td [°C] tt -20cm [°C] tt -100cm [°C] ff [km/u] ff [kn] fx [km/u] fx [kn] dd ppp [hPa] vv [km] rr [mm]
17.12.2018 00:00:00 4,7 3,6 - - 18 10 - - ZW 1005,2 45 0,0
16.12.2018 23:00:00 5,2 4,1 - - 21 11 - - ZW 1004,6 26 0,0
16.12.2018 22:00:00 5,9 4,4 - - 21 11 - - ZW 1004,5 14 0,0
16.12.2018 21:00:00 5,9 4,6 - - 26 14 - - ZZW 1003,9 10 0,0
16.12.2018 20:00:00 6,1 4,6 - - 31 17 - - Z 1003,6 20 0,0
16.12.2018 19:00:00 6,3 5,0 - - 34 18 - - Z 1003,1 16 0,0
16.12.2018 18:00:00 6,1 4,9 - - 21 11 - - Z 1002,7 6 0,0
16.12.2018 17:00:00 5,0 3,8 - - 9 5 - - ZZW 1002,2 9 0,0
16.12.2018 16:00:00 4,9 3,6 - - 22 12 - - ZZW 1001,8 14 0,0
16.12.2018 15:00:00 4,3 3,7 - - 15 8 - - ZZW 1000,9 6 0,0
16.12.2018 14:00:00 4,5 3,9 - - 16 9 - - WZW 1000,1 30 0,0
16.12.2018 13:00:00 5,0 4,3 - - 24 13 - - WZW 999,0 45 0,0
16.12.2018 12:00:00 4,4 3,9 - - 28 15 48 26 ZW 998,6 35 0,0
16.12.2018 11:00:00 3,7 3,5 - - 35 19 50 27 ZW 997,4 35 0,0
16.12.2018 10:00:00 2,7 2,6 - - 41 22 50 27 ZW 996,0 45 0,0
16.12.2018 09:00:00 2,1 2,1 5,7 7,0 37 20 46 25 WZW 994,5 35 0,0
16.12.2018 08:00:00 1,0 1,0 - - 16 9 46 25 W 993,3 8 0,0
16.12.2018 07:00:00 1,5 1,5 - - 39 21 48 26 ZW 991,6 7 0,0
16.12.2018 06:00:00 1,0 1,0 - - 37 20 50 27 ZW 990,6 11 0,2
16.12.2018 05:00:00 2,0 2,0 - - 24 13 - - WZW 989,4 35 0,0
16.12.2018 04:00:00 2,9 2,9 - - 29 16 50 27 W 988,2 13 0,6
16.12.2018 03:00:00 4,9 4,9 - - 44 24 80 43 Z 987,4 1,4 2,2
16.12.2018 02:00:00 5,8 5,8 - - 55 30 93 50 ZZO 987,8 3,7 1,2
16.12.2018 01:00:00 5,1 5,1 - - 67 36 98 53 ZO 988,2 1,9 0,6
16.12.2018 00:00:00 4,4 4,2 - - 78 42 104 56 ZO 989,9 2,3 0,8
15.12.2018 23:00:00 3,7 3,6 - - 76 41 104 56 ZZO 991,6 2,4 1,6
15.12.2018 22:00:00 3,4 3,1 - - 74 40 113 61 ZO 993,2 1,9 2,0
15.12.2018 21:00:00 3,5 3,4 - - 80 43 111 60 ZZO 994,8 1,8 3,6
15.12.2018 20:00:00 3,7 3,1 - - 74 40 104 56 ZZO 995,8 2,4 2,0
15.12.2018 19:00:00 4,0 3,0 - - 80 43 115 62 ZZO 997,3 3,9 1,0
15.12.2018 18:00:00 4,4 2,3 - - 80 43 113 61 ZO 997,5 7 0,0
15.12.2018 17:00:00 4,6 2,2 - - 76 41 113 61 ZO 999,1 8 0,0
15.12.2018 16:00:00 4,2 1,8 - - 89 48 113 61 ZZO 1000,7 6 0,0
15.12.2018 15:00:00 4,6 0,9 - - 74 40 96 52 ZZO 1002,8 9 0,0
15.12.2018 14:00:00 4,2 0,4 - - 76 41 94 51 ZZO 1005,0 12 0,0
15.12.2018 13:00:00 4,2 0,6 - - 67 36 93 50 ZZO 1007,2 12 0,0
15.12.2018 12:00:00 4,1 0,5 - - 74 40 91 49 ZZO 1008,8 13 0,0
15.12.2018 11:00:00 4,0 -0,4 - - 67 36 89 48 ZZO 1010,5 14 0,0
15.12.2018 10:00:00 3,9 0,2 - - 50 27 68 37 Z 1012,8 15 0,0
15.12.2018 09:00:00 4,0 0,3 5,9 7,2 54 29 68 37 Z 1013,6 13 0,0
15.12.2018 08:00:00 3,9 -0,1 - - 50 27 74 40 Z 1012,6 21 0,0
15.12.2018 07:00:00 3,7 -1,7 - - 57 31 80 43 Z 1013,7 25 0,0
15.12.2018 06:00:00 3,8 -1,8 - - 63 34 80 43 Z 1014,8 19 0,0
15.12.2018 05:00:00 3,8 -1,1 - - 59 32 83 45 Z 1015,6 17 0,0
15.12.2018 04:00:00 3,8 -1,7 - - 68 37 85 46 Z 1016,0 21 0,0
15.12.2018 03:00:00 3,7 -2,0 - - 61 33 85 46 Z 1017,1 27 0,0
15.12.2018 02:00:00 3,6 -0,8 - - 54 29 80 43 Z 1017,5 21 0,0
15.12.2018 01:00:00 3,6 -1,4 - - 57 31 74 40 Z 1017,5 30 0,0
15.12.2018 00:00:00 3,7 -2,1 - - 57 31 80 43 Z 1018,2 26 0,0
14.12.2018 23:00:00 3,7 -1,5 - - 65 35 81 44 Z 1018,9 25 0,0
14.12.2018 22:00:00 3,9 -1,8 - - 63 34 74 40 Z 1019,6 30 0,0
14.12.2018 21:00:00 4,1 -1,4 - - 55 30 72 39 Z 1020,0 30 0,0
14.12.2018 20:00:00 3,9 -1,8 - - 52 28 70 38 Z 1019,7 35 0,0
14.12.2018 19:00:00 3,8 -1,3 - - 54 29 67 36 Z 1020,0 35 0,0
14.12.2018 18:00:00 3,8 -1,2 - - 54 29 65 35 Z 1020,5 35 0,0
14.12.2018 17:00:00 3,9 -1,5 - - 50 27 63 34 Z 1021,1 35 0,0
14.12.2018 16:00:00 3,9 -1,5 - - 52 28 61 33 Z 1021,5 45 0,0
14.12.2018 15:00:00 4,0 -0,3 - - 41 22 55 30 Z 1021,4 40 0,0
14.12.2018 14:00:00 4,2 0,3 - - 41 22 55 30 Z 1021,7 25 0,0
14.12.2018 13:00:00 4,2 0,1 - - 39 21 54 29 Z 1022,2 17 0,0
14.12.2018 12:00:00 4,4 0,8 - - 39 21 54 29 Z 1022,1 29 0,0
14.12.2018 11:00:00 4,3 1,7 - - 37 20 65 35 Z 1022,4 40 0,0
14.12.2018 10:00:00 4,5 2,1 - - 37 20 57 31 Z 1022,2 35 0,2
14.12.2018 09:00:00 4,1 2,6 6,0 7,2 31 17 50 27 Z 1022,1 26 0,8
14.12.2018 08:00:00 4,7 0,8 - - 31 17 54 29 Z 1022,0 29 0,0
14.12.2018 07:00:00 4,8 0,9 - - 39 21 50 27 Z 1022,0 30 0,0
14.12.2018 06:00:00 4,8 1,0 - - 41 22 48 26 Z 1022,3 35 0,0
14.12.2018 05:00:00 4,7 1,4 - - 39 21 50 27 Z 1022,4 29 0,0
14.12.2018 04:00:00 4,1 1,9 - - 34 18 50 27 Z 1022,8 18 0,2
14.12.2018 03:00:00 5,1 2,0 - - 35 19 - - Z 1022,8 26 0,0
14.12.2018 02:00:00 4,9 1,5 - - 31 17 46 25 ZZW 1022,8 16 0,0
14.12.2018 01:00:00 5,3 2,1 - - 29 16 50 27 ZZW 1022,7 14 0,0
14.12.2018 00:00:00 5,4 2,3 - - 37 20 55 30 Z 1022,7 13 0,0
13.12.2018 23:00:00 5,6 2,5 - - 46 25 61 33 ZZO 1022,5 15 0,0
13.12.2018 22:00:00 5,8 2,9 - - 41 22 61 33 Z 1022,6 18 0,0
13.12.2018 21:00:00 6,0 1,5 - - 42 23 61 33 Z 1022,6 21 0,0
13.12.2018 20:00:00 6,1 1,2 - - 50 27 61 33 Z 1022,1 26 0,0
13.12.2018 19:00:00 5,6 2,6 - - 46 25 63 34 ZZO 1022,0 20 0,0
13.12.2018 18:00:00 6,0 1,8 - - 48 26 68 37 ZZO 1021,5 17 0,0
13.12.2018 17:00:00 5,9 2,4 - - 50 27 72 39 ZZO 1021,0 18 0,0
13.12.2018 16:00:00 5,7 2,2 - - 52 28 67 36 Z 1020,5 19 0,0
13.12.2018 15:00:00 5,7 2,8 - - 48 26 59 32 Z 1019,7 15 0,0
13.12.2018 14:00:00 5,5 2,0 - - 48 26 59 32 Z 1019,7 22 0,0
13.12.2018 13:00:00 6,0 2,8 - - 41 22 59 32 Z 1019,8 29 0,0
13.12.2018 12:00:00 5,3 3,3 - - 37 20 83 45 Z 1020,0 14 0,0
13.12.2018 11:00:00 5,8 3,7 - - 55 30 87 47 ZZO 1019,5 14 0,2
13.12.2018 10:00:00 5,9 2,5 - - 57 31 89 48 ZZO 1019,6 20 0,0
13.12.2018 09:00:00 5,9 2,0 6,0 7,2 57 31 76 41 ZZO 1019,1 23 0,0
13.12.2018 08:00:00 5,5 2,7 - - 50 27 80 43 ZZO 1019,0 18 0,0
13.12.2018 07:00:00 5,4 2,7 - - 50 27 80 43 ZZO 1018,6 15 0,0
13.12.2018 06:00:00 6,0 1,9 - - 59 32 74 40 ZZO 1018,2 17 0,0
13.12.2018 05:00:00 5,3 2,6 - - 48 26 72 39 ZZO 1018,6 15 0,0
13.12.2018 04:00:00 5,3 3,8 - - 50 27 70 38 ZZO 1018,6 14 0,4
13.12.2018 03:00:00 5,3 3,7 - - 52 28 74 40 ZZO 1018,7 20 0,4
13.12.2018 02:00:00 4,7 3,7 - - 59 32 78 42 ZZO 1019,3 11 0,4
13.12.2018 01:00:00 5,8 3,1 - - 55 30 68 37 Z 1019,4 22 0,0
13.12.2018 00:00:00 6,1 3,0 - - 46 25 65 35 Z 1019,2 21 0,0
12.12.2018 23:00:00 6,1 3,1 - - 44 24 61 33 Z 1019,2 17 0,0
12.12.2018 22:00:00 6,1 2,6 - - 50 27 65 35 Z 1019,6 21 0,0
12.12.2018 21:00:00 6,1 2,5 - - 50 27 68 37 Z 1019,8 20 0,0
12.12.2018 20:00:00 6,4 2,5 - - 55 30 70 38 Z 1019,9 22 0,0
12.12.2018 19:00:00 6,5 3,1 - - 48 26 65 35 ZZO 1019,7 19 0,0
12.12.2018 18:00:00 6,6 2,5 - - 54 29 67 36 ZZO 1019,8 26 0,0
12.12.2018 17:00:00 6,4 3,0 - - 50 27 68 37 ZZO 1019,9 19 0,0
12.12.2018 16:00:00 6,7 3,9 - - 57 31 72 39 ZZO 1019,7 19 0,0
12.12.2018 15:00:00 6,8 4,2 - - 54 29 67 36 ZZO 1019,9 19 0,0
12.12.2018 14:00:00 6,9 4,3 - - 52 28 70 38 ZZO 1020,3 15 0,0
12.12.2018 13:00:00 7,2 3,8 - - 55 30 70 38 Z 1020,5 18 0,0
12.12.2018 12:00:00 7,0 4,9 - - 57 31 74 40 ZZO 1020,6 16 0,0
12.12.2018 11:00:00 7,0 5,0 - - 50 27 65 35 ZZO 1021,1 16 0,0
12.12.2018 10:00:00 6,8 5,2 - - 52 28 67 36 ZZO 1020,9 14 0,0
12.12.2018 09:00:00 6,8 5,7 5,7 7,2 54 29 67 36 ZZO 1020,7 14 0,0
12.12.2018 08:00:00 6,6 5,5 - - 48 26 65 35 ZZO 1020,4 12 0,0
12.12.2018 07:00:00 6,6 5,7 - - 48 26 67 36 ZZO 1020,2 9 0,0
12.12.2018 06:00:00 6,5 5,5 - - 52 28 65 35 ZZO 1019,8 12 0,0
12.12.2018 05:00:00 6,2 5,8 - - 44 24 59 32 Z 1019,7 5 0,0
12.12.2018 04:00:00 5,9 5,6 - - 46 25 57 31 Z 1020,0 6 0,0
12.12.2018 03:00:00 6,2 5,8 - - 44 24 61 33 Z 1020,3 5 0,0
12.12.2018 02:00:00 6,3 6,0 - - 41 22 55 30 Z 1020,3 3,6 0,0
12.12.2018 01:00:00 6,0 5,8 - - 42 23 55 30 Z 1020,3 5 0,0
12.12.2018 00:00:00 6,5 6,3 - - 39 21 48 26 Z 1020,3 4,2 0,0
11.12.2018 23:00:00 7,0 6,7 - - 37 20 48 26 Z 1020,3 9 0,0
11.12.2018 22:00:00 7,0 6,7 - - 37 20 50 27 Z 1020,3 10 0,0
11.12.2018 21:00:00 6,7 6,7 - - 42 23 52 28 Z 1020,2 9 0,0
11.12.2018 20:00:00 6,7 6,7 - - 37 20 50 27 Z 1020,2 0,1 0,0
11.12.2018 19:00:00 6,8 6,8 - - 34 18 - - Z 1020,4 0,1 0,2
11.12.2018 18:00:00 6,7 6,6 - - 29 16 - - Z 1020,5 0,1 0,2
11.12.2018 17:00:00 6,7 6,3 - - 22 12 - - Z 1020,4 9 0,0
11.12.2018 16:00:00 5,7 5,0 - - 13 7 - - ZZW 1020,6 16 0,0
11.12.2018 15:00:00 5,7 5,0 - - 13 7 - - ZZW 1020,7 15 -
11.12.2018 14:00:00 5,8 5,0 - - 15 8 - - ZZW 1021,3 11 0,0
11.12.2018 13:00:00 6,1 5,1 - - 16 9 - - ZZW 1021,9 17 0,0
11.12.2018 12:00:00 6,0 4,7 - - 21 11 - - ZZW 1022,3 16 0,0
11.12.2018 11:00:00 6,5 5,1 - - 26 14 - - Z 1022,6 18 0,0
11.12.2018 10:00:00 6,3 4,8 - - 28 15 - - Z 1022,8 35 0,0
11.12.2018 09:00:00 6,1 4,7 5,7 7,5 26 14 - - Z 1022,9 30 0,0
11.12.2018 08:00:00 5,9 3,9 - - 26 14 - - Z 1022,9 35 0,0
11.12.2018 07:00:00 5,6 3,6 - - 26 14 - - Z 1023,2 35 0,0
11.12.2018 06:00:00 4,7 2,6 - - 18 10 - - Z 1023,4 27 0,0
11.12.2018 05:00:00 3,5 1,2 - - 9 5 - - ZZW 1023,6 40 0,0
11.12.2018 04:00:00 2,2 -0,9 - - 5 3 - - WZW 1024,1 40 0,0
11.12.2018 03:00:00 2,0 -1,7 - - 5 3 - - W 1024,3 45 0,0
11.12.2018 02:00:00 2,0 -2,0 - - 5 3 - - WNW 1024,6 40 0,0
11.12.2018 01:00:00 2,7 -1,8 - - 8 4 - - ZW 1024,9 50 0,0
11.12.2018 00:00:00 1,5 -2,5 - - 4 2 - - W 1025,5 50 0,0

tt = temperatuur
td = dauwpunt
tt -20cm = temperatuur -20cm
tt -100cm = temperatuur -100cm
ff = windsnelheid
fx = windstoten
dd = windrichting
ppp = luchtdruk
vv = zicht
rr = neerslag

Weerstations in de omgeving